Regional Weather Roundup
Issued by NWS

Home | Current Version | Previous Version | Text Only | Print | Product List | Glossary On
Versions: 1 2 3 4 5 6 7 8 9 10 11 12 13 14 15 16 17 18 19 20 21 22 23 24 25 26 27 28 29 30 31 32 33 34 35 36 37 38 39 40 41 42 43 44 45 46 47 48 49 50
000
ASCA44 KEWX 240320
RWRMX

LATIN AMERICA AND CARIBBEAN REGIONAL WEATHER ROUNDUP
NATIONAL WEATHER SERVICE AUSTIN/SAN ANTONIO TX
1000 PM CDT MON APR 23 2018

NOTE: "FAIR" INDICATED FEW OR NO CLOUDS BELOW 12,000 FEET WITH NO
SIGNIFICANT WEATHER AND/OR OBSTRUCTIONS TO VISIBILITY.

BAJA CALIFORNIA

CITY           SKY/WX    TMP DP  RH WIND       PRES   REMARKS
LA PAZ         PTCLDY    75  57  53 CALM      29.92
MEXICALI       PTCLDY    84  39  20 SE7       29.81
S.J. DEL CABO  CLEAR     77  36  22 CALM      29.91R
TIJUANA        PTCLDY    59  55  88 CALM      30.02R

NORTHWESTERN MEXICO

CITY           SKY/WX    TMP DP  RH WIND       PRES   REMARKS
CULIACAN       PTCLDY    77  50  38 CALM      29.86
DURANGO        MOCLDY    73  32  21 SW10      30.18
GUAYMAS          N/A    N/A N/A N/A MISG        N/A
HERMOSILLO     MOCLDY    86  32  14 W6        29.89
CD. JUAREZ     PTCLDY    79  23  12 SW3       30.03
LOS MOCHIS     PTCLDY    73  45  35 W5        29.87R

NORTHEASTERN MEXICO

CITY           SKY/WX    TMP DP  RH WIND       PRES   REMARKS
CHIHUAHUA      CLEAR     70  28  21 CALM      30.07
MONCLOVA         N/A    N/A N/A N/A MISG        N/A
MONTERREY      CLOUDY    68  63  83 SE8       30.06R
REYNOSA          N/A    N/A N/A N/A MISG        N/A
SALTILLO       FOG       57  54  88 N7        30.21R VSB 1
TORREON        PTCLDY    88  46  23 CALM      29.96R
CD. VICTORIA   DRIZZLE   72  72 100 CALM      30.07

WESTERN MEXICO

CITY           SKY/WX    TMP DP  RH WIND       PRES   REMARKS
AGUASCALIENTES MOCLDY    75  28  17 W7        30.16R
COLIMA           N/A    N/A N/A N/A MISG        N/A
DEL BAJIO      MOCLDY    77  41  27 CALM      30.22R
GUADALAJARA    PTCLDY    81  41  24 W18       30.11
MAZATLAN       PTCLDY    72  64  78 CALM      29.88R
P. VALLARTA    MOCLDY    75  66  73 SW2       29.89R
ZACATECAS      PTCLDY    70  28  21 W9        30.24R

CENTRAL MEXICO

CITY           SKY/WX    TMP DP  RH WIND       PRES   REMARKS
CUERNAVACA       N/A    N/A N/A N/A MISG        N/A
MEXICO CITY    CLOUDY    61  54  77 SW5       30.35S
MORELIA        PTCLDY    73  50  43 S8        30.17
POZA RICA        N/A    N/A N/A N/A MISG        N/A
QUERETARO      MOCLDY    70  55  60 E14       30.28R
S. LUIS POTOSI MOCLDY    64  54  68 SE14      30.22R
TAMPICO        MOCLDY    77  73  88 MISG      30.03R
TOLUCA         MOCLDY    57  50  77 CALM      30.41R

SOUTHERN MEXICO

CITY           SKY/WX    TMP DP  RH WIND       PRES   REMARKS
ACAPULCO       MOCLDY    81  77  89 W7        29.88R
B. DE HUATULCO   N/A    N/A N/A N/A MISG        N/A
P. ESCONDIDO   PTCLDY    84  73  70 SW7       29.98  HX  91
VERACRUZ       MOCLDY    79  75  89 N5        29.98R
ZIHUATANEJO      N/A    N/A N/A N/A MISG        N/A

YUCATAN PENINSULA

CITY           SKY/WX    TMP DP  RH WIND       PRES   REMARKS
CAMPECHE       PTCLDY    81  73  78 NE12G23   29.92R
CANCUN         PTCLDY    81  73  78 SE6       29.97S
CHETUMAL       PTCLDY    81  75  83 E7        29.96
CD. DEL CARMEN   N/A    N/A N/A N/A MISG        N/A
COZUMEL        MOCLDY    77  73  88 SE5       29.96R
MERIDA         PTCLDY    81  73  78 N6        29.98R
MINATITLAN     PTCLDY    79  77  94 CALM      29.93
TAPACHULA      CLEAR     81  77  89 CALM      29.87R
TUX. GUTIERREZ PTCLDY    81  68  65 NW16G28   29.93R
VILLAHERMOSA   PTCLDY    77  75  94 CALM      29.96R

CENTRAL AMERICA

CITY           SKY/WX    TMP DP  RH WIND       PRES   REMARKS
MANAGUA        PTCLDY    86  72  62 E14       29.83S HX  92

CARIBBEAN

CITY           SKY/WX    TMP DP  RH WIND       PRES   REMARKS
ARUBA          PTCLDY    81  75  83 E22       29.89F
CURACAO          N/A     81  73  78 E14       29.94S
KINGSTON       PTCLDY    81  75  83 E9        29.97S
NASSAU         PTCLDY    79  73  83 SE6       30.09R
SAN JUAN       PTCLDY    75  73  94 E8        30.04S
SANTO DOMINGO  PTCLDY    75  72  88 E5        30.00S THUNDER
ST. THOMAS     HVY RAIN  77  75  94 E10       30.04

$$





USA.gov is the U.S. government's official web portal to all federal, state and local government web resources and services.